Weather History for Lexington, KY

Change the Weather History Date:

Thursday, December 5, 2013

  Actual Average Record
Temperature  
Mean Temperature 51 °F 39 °F  
Max Temperature 66 °F 47 °F 72 °F (2001)
Min Temperature 36 °F 31 °F 11 °F (1895)
Degree Days  
Heating Degree Days 14 26  
Month to date heating degree days 75 128  
Since 1 July heating degree days 1002 1015  
Cooling Degree Days 0 0  
Month to date cooling degree days 0 0  
Year to date cooling degree days 1245 1190  
Moisture  
Dew Point 50 °F    
Average Humidity 86    
Maximum Humidity 93    
Minimum Humidity 78    
Precipitation  
Precipitation 1.06 in 0.13 in 1.88 in (2011)
Month to date precipitation 1.16 0.64  
Year to date precipitation 55.11 41.88  
Snow  
Snow 0.00 in 0.00 in 4.90 in (1984)
Month to date snowfall 0.0 0.2  
Since 1 July snowfall 1.4 0.5  
Snow Depth 0.00 in    
Sea Level Pressure  
Sea Level Pressure 29.95 in    
Wind  
Wind Speed 11 mph (WNW)    
Max Wind Speed 18 mph    
Max Gust Speed 24 mph    
Visibility 6 miles    
Events Rain    
T = Trace of Precipitation, MM = Missing Value Source: NWS Daily Summary

Daily Weather History Graph

Daily Weather History Graph

Search for Another Location

Airport:

Trip Planner

Search our weather history database for the weather conditions in past years. The results will help you decide how hot, cold, wet, or windy it might be!

Date:

Astronomy

Dec. 05, 2013 Rise Set
Actual Time 7:39 AM EST 5:18 PM EST
Civil Twilight 7:10 AM EST 5:47 PM EST
Nautical Twilight 6:37 AM EST 6:20 PM EST
Astronomical Twilight 6:05 AM EST 6:52 PM EST
Moon 10:00 AM EST (12/5) 8:36 PM EST (12/5)
Length of Visible Light 10h 37m
Length of Day
9h 38m
Waxing Crescent, 10% of the Moon is Illuminated
Dec 5
Waxing Crescent
Dec 9
First Quarter
Dec 17
Full
Dec 25
Last Quarter
Jan 1
New

Hourly Weather History & Observations

Time (EST) Temp. Windchill Dew Point Humidity Pressure Visibility Wind Dir Wind Speed Gust Speed Precip Events Conditions
12:54 AM 62.1 °F - 55.9 °F 80% 29.85 in 10.0 mi South 10.4 mph - N/A   Mostly Cloudy
1:54 AM 62.1 °F - 55.9 °F 80% 29.83 in 9.0 mi South 11.5 mph - N/A   Mostly Cloudy
2:54 AM 63.0 °F - 57.0 °F 81% 29.84 in 9.0 mi South 11.5 mph - N/A   Mostly Cloudy
3:54 AM 64.0 °F - 57.9 °F 80% 29.83 in 9.0 mi South 12.7 mph - N/A   Mostly Cloudy
4:37 AM 64.0 °F - 59.0 °F 84% 29.85 in 10.0 mi South 9.2 mph - N/A   Overcast
4:54 AM 64.9 °F - 59.0 °F 81% 29.83 in 10.0 mi South 10.4 mph - N/A   Overcast
5:54 AM 64.9 °F - 60.1 °F 84% 29.84 in 10.0 mi South 10.4 mph - 0.00 in   Overcast
6:54 AM 64.0 °F - 61.0 °F 90% 29.86 in 7.0 mi South 10.4 mph - 0.01 in Rain Light Rain
7:26 AM 64.0 °F - 61.0 °F 90% 29.87 in 7.0 mi South 10.4 mph - 0.02 in   Overcast
7:54 AM 64.0 °F - 61.0 °F 90% 29.85 in 6.0 mi South 9.2 mph - 0.02 in   Overcast
8:14 AM 64.9 °F - 62.1 °F 90% 29.88 in 1.5 mi South 12.7 mph - 0.03 in Rain Heavy Rain
8:24 AM 64.0 °F - 62.1 °F 93% 29.87 in 3.0 mi South 9.2 mph 23.0 mph 0.12 in Rain Light Rain
8:32 AM 64.0 °F - 62.1 °F 93% 29.88 in 3.0 mi South 9.2 mph - 0.13 in Rain Light Rain
8:49 AM 64.4 °F - 62.6 °F 94% 29.87 in 3.0 mi South 13.8 mph - 0.15 in Rain Light Rain
8:54 AM 64.0 °F - 62.1 °F 93% 29.86 in 3.0 mi South 12.7 mph - 0.16 in Rain Light Rain
9:24 AM 64.9 °F - 62.1 °F 90% 29.89 in 2.5 mi SSW 12.7 mph - 0.08 in Rain Rain
9:35 AM 64.9 °F - 62.1 °F 90% 29.89 in 1.2 mi SSW 11.5 mph - 0.20 in Rain Heavy Rain
9:46 AM 64.9 °F - 62.1 °F 90% 29.89 in 3.0 mi South 15.0 mph 19.6 mph 0.27 in Rain Light Rain
9:54 AM 64.9 °F - 62.1 °F 90% 29.88 in 6.0 mi SSW 11.5 mph - 0.27 in Rain Light Rain
10:00 AM 64.9 °F - 62.1 °F 90% 29.90 in 5.0 mi SW 12.7 mph - 0.00 in Rain Light Rain
10:07 AM 64.9 °F - 62.1 °F 90% 29.90 in 4.0 mi SW 12.7 mph - 0.02 in Rain Light Rain
10:19 AM 64.0 °F - 62.1 °F 93% 29.92 in 1.8 mi WNW 9.2 mph - 0.05 in Rain Light Rain
10:26 AM 62.1 °F - 60.1 °F 93% 29.92 in 3.0 mi WNW 8.1 mph - 0.07 in Rain Light Rain
10:54 AM 57.0 °F - 54.0 °F 89% 29.93 in 9.0 mi NW 8.1 mph - 0.08 in Rain Light Rain
11:18 AM 55.0 °F - 53.1 °F 93% 29.95 in 2.0 mi WNW 11.5 mph - 0.01 in Rain Light Rain
11:32 AM 55.0 °F - 53.1 °F 93% 29.96 in 4.0 mi WNW 13.8 mph 19.6 mph 0.05 in Rain Light Rain
11:54 AM 54.0 °F - 52.0 °F 93% 29.96 in 3.0 mi WNW 12.7 mph - 0.05 in Rain Light Rain
12:54 PM 51.1 °F - 46.9 °F 86% 29.96 in 10.0 mi WNW 10.4 mph - 0.00 in   Overcast
1:07 PM 51.1 °F - 45.0 °F 80% 29.96 in 10.0 mi NW 12.7 mph - 0.00 in Rain Light Rain
1:29 PM 50.0 °F - 46.9 °F 89% 29.95 in 8.0 mi NW 9.2 mph - 0.00 in Rain Light Rain
1:54 PM 50.0 °F - 46.0 °F 86% 29.95 in 9.0 mi NNW 10.4 mph - 0.00 in Rain Light Rain
2:04 PM 50.0 °F - 46.0 °F 86% 29.96 in 8.0 mi NW 10.4 mph - 0.00 in   Overcast
2:54 PM 48.0 °F - 45.0 °F 89% 29.95 in 7.0 mi North 10.4 mph - 0.00 in   Overcast
3:54 PM 46.9 °F - 42.1 °F 83% 29.98 in 10.0 mi NNW 8.1 mph - N/A   Overcast
4:54 PM 46.0 °F 39.3 °F 41.0 °F 83% 30.03 in 9.0 mi NNW 16.1 mph - N/A   Overcast
5:01 PM 46.0 °F 41.0 °F 41.0 °F 83% 30.02 in 9.0 mi NNW 10.4 mph 21.9 mph N/A   Overcast
5:08 PM 46.0 °F 40.2 °F 39.9 °F 79% 30.02 in 9.0 mi North 12.7 mph - N/A   Overcast
5:51 PM 44.6 °F 36.9 °F 37.4 °F 76% 30.02 in 10.0 mi North 18.4 mph 23.0 mph N/A   Overcast
5:54 PM 43.0 °F 34.8 °F 37.9 °F 82% 30.02 in 10.0 mi North 18.4 mph - N/A   Overcast
6:19 PM 42.1 °F 34.5 °F 37.9 °F 85% 30.06 in 7.0 mi NNW 15.0 mph - 0.01 in Rain Light Rain
6:54 PM 39.0 °F 31.8 °F 36.0 °F 89% 30.06 in 4.0 mi North 11.5 mph - 0.12 in Rain Rain
7:49 PM 37.4 °F 31.4 °F 35.6 °F 93% 30.05 in 3.0 mi North 8.1 mph - 0.10 in Rain Rain
7:54 PM 37.9 °F 32.7 °F 36.0 °F 93% 30.05 in 4.0 mi NNE 6.9 mph - 0.11 in Rain Rain
8:16 PM 39.0 °F 32.3 °F 36.0 °F 89% 30.05 in 6.0 mi North 10.4 mph - 0.00 in Rain Light Rain
8:44 PM 39.0 °F 34.8 °F 37.0 °F 93% 30.06 in 4.0 mi NNW 5.8 mph - 0.01 in Rain Light Rain
8:54 PM 37.9 °F 30.9 °F 36.0 °F 93% 30.06 in 2.0 mi NNW 10.4 mph - 0.04 in Rain Heavy Rain
9:07 PM 37.9 °F 29.6 °F 36.0 °F 93% 30.07 in 3.0 mi NNW 13.8 mph - 0.04 in Rain Heavy Rain
9:54 PM 37.9 °F 29.6 °F 36.0 °F 93% 30.09 in 4.0 mi NNW 13.8 mph - 0.13 in Rain Rain
10:54 PM 36.0 °F 27.5 °F 34.0 °F 93% 30.10 in 8.0 mi North 12.7 mph - 0.07 in Rain Light Rain
11:54 PM 36.0 °F 28.0 °F 34.0 °F 93% 30.12 in 4.0 mi North 11.5 mph - 0.00 in Rain Light Rain